This is the latest recevied weather packets stored in our database for station/object VE8SKI. If no packets are shown the sender has not sent any weather packets the latest 10 day(s).
| Time | Temp. | Humidity | Pressure | Rain* | Wind** | Luminosity | Snow |
|---|---|---|---|---|---|---|---|
| 1777403112 | 1.67° C | 67% | 1017 hPa | 0 mm | 0.89 m/s, 215° | - | - |
| 1777402813 | 1.67° C | 67% | 1017 hPa | 0 mm | 1.34 m/s, 333° | - | - |
| 1777402513 | 1.11° C | 68% | 1017.1 hPa | 0 mm | 2.24 m/s, 257° | - | - |
| 1777402211 | 1.67° C | 67% | 1017.2 hPa | 0 mm | 1.79 m/s, 232° | - | - |
| 1777401912 | 1.67° C | 67% | 1017.2 hPa | 0 mm | 1.79 m/s, 359° | - | - |
| 1777401612 | 1.11° C | 68% | 1017.3 hPa | 0 mm | 0.89 m/s, 217° | - | - |
| 1777401313 | 1.11° C | 69% | 1017.3 hPa | 0 mm | 1.34 m/s, 330° | - | - |
| 1777401013 | 0.56° C | 70% | 1017.4 hPa | 0 mm | 0 m/s | - | - |
| 1777400714 | 0.56° C | 69% | 1017.4 hPa | 0 mm | 1.34 m/s, 207° | - | - |
| 1777400412 | 1.11° C | 69% | 1017.4 hPa | 0 mm | 0.45 m/s, 304° | - | - |
| 1777400112 | 1.11° C | 70% | 1017.4 hPa | 0 mm | 0.45 m/s, 252° | - | - |
| 1777399813 | 0.56° C | 69% | 1017.5 hPa | 0 mm | 0.45 m/s, 297° | - | - |
| 1777399513 | 0.56° C | 70% | 1017.5 hPa | 0 mm | 0.89 m/s, 345° | - | - |
| 1777399214 | 0.56° C | 70% | 1017.5 hPa | 0 mm | 1.34 m/s, 233° | - | - |
| 1777398914 | 0° C | 71% | 1017.5 hPa | 0 mm | 0.89 m/s, 248° | - | - |
| 1777398612 | 0° C | 71% | 1017.5 hPa | 0 mm | 0.89 m/s, 0° | - | - |
| 1777398312 | -0.56° C | 71% | 1017.6 hPa | 0 mm | 2.24 m/s, 270° | - | - |
| 1777398013 | -0.56° C | 71% | 1017.6 hPa | 0 mm | 0.89 m/s, 264° | - | - |
| 1777397713 | -0.56° C | 71% | 1017.7 hPa | 0 mm | 1.34 m/s, 291° | - | - |
| 1777397414 | -0.56° C | 72% | 1017.8 hPa | 0 mm | 1.34 m/s, 187° | - | - |
| 1777397114 | -1.11° C | 73% | 1017.9 hPa | 0 mm | 1.34 m/s, 248° | - | - |
| 1777396812 | -0.56° C | 72% | 1018.1 hPa | 0 mm | 2.68 m/s, 222° | - | - |
| 1777396512 | -0.56° C | 71% | 1018.2 hPa | 0 mm | 0.89 m/s, 4° | - | - |
| 1777396213 | -0.56° C | 72% | 1018.4 hPa | 0 mm | 1.34 m/s, 305° | - | - |
| 1777395913 | -1.11° C | 71% | 1018.4 hPa | 0 mm | 2.68 m/s, 242° | - | - |
* Rain latest hour (hover to see other rain measurements)
** Current wind speed in m/s (hover to see current wind gust speed)